Location: Gleizolles
(44.4833°N, 6.7667°E)
Time: 20:48:02
(UTC+00:00)

Transit 4A - Visible Passes

Search period start: 25 June 2024 00:00
Search period end: 05 July 2024 00:00
Orbit: 871 x 972 km, 66.8° (Epoch: 25 June)

Date Brightness Start Highest point End Pass type
(mag) Time Alt. Az. Time Alt. Az. Time Alt. Az.
25 Jun 10.7 00:21:38 10° NW 00:22:55 11° NNW 00:24:15 10° N visible
25 Jun 7.7 20:51:23 10° SSW 20:57:09 67° ESE 21:02:56 10° NE visible
25 Jun 9.8 22:39:10 10° W 22:43:58 26° NW 22:48:48 10° NNE visible
26 Jun 7.8 21:00:18 10° SSW 21:06:08 85° WNW 21:12:00 10° NNE visible
26 Jun 10.3 22:49:09 10° W 22:53:20 20° NW 22:57:34 10° N visible
27 Jun 8.3 21:09:27 10° SW 21:15:12 60° NW 21:21:00 10° NNE visible
27 Jun 10.6 22:59:23 10° WNW 23:02:48 16° NNW 23:06:14 10° N visible
28 Jun 11.0 02:39:19 10° N 02:41:32 12° NNE 02:43:45 10° NE visible
28 Jun 9.0 21:18:50 10° WSW 21:24:21 43° NW 21:29:55 10° NNE visible
28 Jun 10.8 23:09:57 10° NW 23:12:20 12° NNW 23:14:44 10° N visible
29 Jun 10.9 02:47:46 10° N 02:51:05 15° NNE 02:54:25 10° ENE visible
29 Jun 9.7 21:28:26 10° WSW 21:33:35 32° NW 21:38:46 10° NNE visible
29 Jun 11.2 23:21:29 10° NNW 23:21:57 10° NNW 23:22:24 10° NNW visible
30 Jun 10.7 02:56:24 10° N 03:00:33 19° NE 03:04:46 10° E visible
30 Jun 7.8 19:50:09 10° SSW 19:55:58 75° ESE 20:01:47 10° NE visible
30 Jun 10.2 21:38:15 10° W 21:42:54 24° NW 21:47:34 10° NNE visible
01 Jul 10.5 03:05:09 10° NNW 03:09:57 25° NE 03:14:49 10° E visible
01 Jul 8.0 19:59:09 10° SW 20:04:58 77° WNW 20:10:50 10° NNE visible
01 Jul 10.6 21:48:19 10° WNW 21:52:17 18° NW 21:56:17 10° N visible
02 Jul 11.4 01:29:54 10° N 01:30:55 10° NNE 01:31:57 10° NNE visible
02 Jul 10.0 03:13:56 10° NNW 03:19:16 33° NE 03:24:40 10° ESE visible
02 Jul 8.7 20:08:22 10° SW 20:14:03 54° NW 20:19:48 10° NNE visible
02 Jul 10.9 21:58:38 10° WNW 22:01:46 15° NNW 22:04:56 10° N visible
03 Jul 11.1 01:37:56 10° N 01:40:32 13° NNE 01:43:09 10° NE visible
03 Jul 9.4 20:17:48 10° WSW 20:23:14 39° NW 20:28:42 10° NNE visible
03 Jul 11.2 22:09:20 10° NW 22:11:20 12° NNW 22:13:20 10° N visible
04 Jul 11.0 01:46:28 10° N 01:50:04 16° NNE 01:53:42 10° ENE visible
04 Jul 10.0 20:27:29 10° WSW 20:32:29 29° NW 20:37:32 10° NNE visible
